Tracking 18980 objects as of 21-Feb-2018
HD Live streaming from Space Station
objects crossing your sky now

COSMOS 1763

Track COSMOS 1763 now!
10-day predictions
COSMOS 1763 is classified as:


NORAD ID: 16860
Int'l Code: 1986-052A
Perigee: 750.4 km
Apogee: 793.2 km
Inclination: 74.0 °
Period: 100.1 minutes
Semi major axis: 7142 km
RCS: 2.3788 m2 (large)
Launch date: July 16, 1986
Source: Commonwealth of Independent States (former USSR) (CIS)
Launch site: PLESETSK MISSILE AND SPACE COMPLEX (PKMTR)
aabbcc
Your satellite tracking list
Your tracking list is empty




NASA's NSSDC Master Catalog

Two Line Element Set (TLE):
1 16860U 86052A   18051.17014624  .00000004  00000-0  10039-4 0  9993
2 16860  74.0327  48.9464 0029911  77.7184 282.7316 14.38136976657103
Source of the keplerian elements: AFSPC